Regional Weather Roundup
Issued by NWS Mt. Holly, NJ

Home | Current Version | Previous Version | Text Only | Print | Product List | Glossary On
Versions: 1 2 3 4 5 6 7 8 9 10 11 12 13 14 15 16 17 18 19 20 21 22 23 24 25 26 27 28 29 30 31 32 33 34 35 36 37 38 39 40 41 42 43 44 45 46 47 48 49 50
000
ASUS41 KPHI 270112
RWRPHI

REGIONAL WEATHER ROUNDUP
NATIONAL WEATHER SERVICE MOUNT HOLLY NJ
900 PM EDT SUN MAR 26 2017

NOTE:  "FAIR" INDICATES FEW OR NO CLOUDS BELOW 12,000 FEET WITH NO
SIGNIFICANT WEATHER AND/OR OBSTRUCTIONS TO VISIBILITY.

 * = STATION DOES NOT REPORT PRECIPITATION (E.G. RAIN, SNOW, ETC.)
        OR FOG.

NJZ015>026-270200-
SOUTHERN NEW JERSEY

CITY           SKY/WX    TMP DP  RH WIND       PRES   REMARKS
POMONA         CLOUDY    43  41  93 NE12      30.31R FOG
WILDWOOD*      CLOUDY    43  42  97 NE10      30.30R FOG
MILLVILLE      CLOUDY    43  43 100 E10       30.29S FOG
WRIGHTSTOWN    CLOUDY    39  39 100 E8        30.30S FOG     WCI  34
MOUNT HOLLY    CLOUDY    40  39  97 E9        30.32S FOG     WCI  34
TRENTON        CLOUDY    39  39 100 E13       30.31F FOG     WCI  31

$$
NJZ001>014-270200-
NORTHERN NEW JERSEY

CITY           SKY/WX    TMP DP  RH WIND       PRES   REMARKS
SUSSEX         CLOUDY    38  33  82 E5        30.33F WCI  34
ANDOVER*         N/A     37  34  89 CALM      30.32F
MORRISTOWN     CLOUDY    39  37  93 E7        30.36F FOG     WCI  34
NEWARK         DRIZZLE   40  38  93 NE8       30.36F FOG     WCI  34
TETERBORO      CLOUDY    40  38  93 NE7       30.37S FOG
CALDWELL       CLOUDY    39  37  92 E7        30.36F FOG     WCI  34
SOMERVILLE     CLOUDY    40  38  93 E6        30.32F
ALLAIRE*       LGT RAIN  40  39  97 NE12      30.34S FOG     WCI  33
TOMS RIVER*    LGT RAIN  41  40  96 E8        30.34R FOG

$$
PAZ043-044-047-054-055-060>062-066>071-270200-
EASTERN PENNSYLVANIA

CITY           SKY/WX    TMP DP  RH WIND       PRES   REMARKS
PHILADELPHIA   CLOUDY    42  39  89 E10       30.32S
NORTH PHILA    CLOUDY    41  40  96 E14       30.33F FOG
BLUE BELL*     CLOUDY    37  37 100 E9        30.30R WCI  31
DOYLESTOWN     CLOUDY    38  38 100 E3        30.31S
QUAKERTOWN*    CLOUDY    37  37 100 E8        30.30F WCI  31
PERKASIE*      CLOUDY    37  37 100 E9        30.30F FOG     WCI  31
POTTSTOWN      CLOUDY    39  38  96 E7        30.31S FOG     WCI  34
LANCASTER      CLOUDY    42  42 100 E9        30.28R FOG
COATESVILLE    MIX PCPN  41  41 100 E13G20    30.28S VSB 1
READING        CLOUDY    41  40  96 E8        30.29R FOG
ALLENTOWN      CLOUDY    40  35  83 E10       30.30F WCI  33
MOUNT POCONO   FOG       31  31 100 SE15      30.23F VSB 1/4 WCI  20
HAZLETON       LGT RAIN  36  34  93 SE10G20   30.25R VSB 1   WCI  28
LEHIGHTON      CLOUDY    37  37 100 E6        30.30S FOG     WCI  33
WILKES BARRE   CLOUDY    39  35  86 CALM      30.25R

$$
DEZALL-MDZ008-012-015-019-020-270200-
DELAWARE AND EASTERN MARYLAND

CITY           SKY/WX    TMP DP  RH WIND       PRES   REMARKS
WILMINGTON     CLOUDY    43  42  97 E13       30.29S FOG
DOVER          CLOUDY    44  44 100 E9        30.27F FOG
GEORGETOWN     CLOUDY    45  43  93 E9        30.27F FOG
EASTON         CLOUDY    46  45  93 E10       30.29F FOG
ABERDEEN       CLOUDY    44  43  98 E8        30.28S
PATUXENT       CLOUDY    47  47 100 E13       30.23F FOG
OCEAN CITY     FOG       45  44  97 NE7       30.27R VSB 3/4
WALLOPS ISLAND FOG       47  47 100 NE14      30.26R VSB 1/2
CAMBRIDGE      CLOUDY    45  45 100 E10       30.24F FOG
SALISBURY      FOG       45  45 100 E9        30.25S VSB 1

$$
PAZ001-021-NYZ056-072-MDZ011-DCZ001-270200-
OTHER NEARBY LOCATIONS

CITY           SKY/WX    TMP DP  RH WIND       PRES   REMARKS
HARRISBURG     CLOUDY    43  43 100 E8        30.26R FOG
STATE COLLEGE  CLOUDY    41  39  93 SE6       30.18S
WILLIAMSPORT   CLOUDY    42  38  85 E13G20    30.23S FOG
BINGHAMTON     CLOUDY    33  32  96 S12       30.18S WCI  24
NEW YORK CITY  CLOUDY    39  37  92 E8        30.39S FOG     WCI  33
BALTIMORE      DRIZZLE   45  45 100 E12       30.26R FOG
WASHINGTON DC  DRIZZLE   48  47  96 E9        30.25R FOG

$$



USA.gov is the U.S. government's official web portal to all federal, state and local government web resources and services.